JQ3CCU-10 Weather Reports


time (UTC)temp
F
wind
direction
speed
knots
gust
knots
rain 1hr
in
rain 24hr
in
rain mn
in
humidity
%
barometer
mb
20260509112415 75 0 0.0 0.0 0.00 0.00 0.00 56
20260509105415 76 0 0.0 0.0 0.00 0.00 0.00 55
20260509102415 77 0 0.0 0.0 0.00 0.00 0.00 52
20260509095415 77 0 0.0 0.0 0.00 0.00 0.00 52
20260509092415 81 0 0.0 0.0 0.00 0.00 0.00 49
20260509085415 81 0 0.0 0.0 0.00 0.00 0.00 50
20260509082415 80 0 0.0 0.0 0.00 0.00 0.00 50
20260509075415 80 0 0.0 0.0 0.00 0.00 0.00 49
20260509072415 80 0 0.0 0.0 0.00 0.00 0.00 49
20260509065415 79 0 0.0 0.0 0.00 0.00 0.00 49
20260509062415 79 0 0.0 0.0 0.00 0.00 0.00 48
20260509055415 79 0 0.0 0.0 0.00 0.00 0.00 48
20260509052415 78 0 0.0 0.0 0.00 0.00 0.00 47
20260509045415 79 0 0.0 0.0 0.00 0.00 0.00 51
20260509042415 79 0 0.0 0.0 0.00 0.00 0.00 47
20260509035415 79 0 0.0 0.0 0.00 0.00 0.00 47
20260509032415 79 0 0.0 0.0 0.00 0.00 0.00 44
20260509025415 80 0 0.0 0.0 0.00 0.00 0.00 46
20260509022415 81 0 0.0 0.0 0.00 0.00 0.00 45
20260509015415 84 0 0.0 0.0 0.00 0.00 0.00 41
20260509012415 87 0 0.0 0.0 0.00 0.00 0.00 37
20260509005415 92 0 0.0 0.0 0.00 0.00 0.00 34
20260509002415 92 0 0.0 0.0 0.00 0.00 0.00 34
20260508235415 95 0 0.0 0.0 0.00 0.00 0.00 33
20260508232415 93 0 0.0 0.0 0.00 0.00 0.00 34
20260508225415 89 0 0.0 0.0 0.00 0.00 0.00 38
20260508222415 89 0 0.0 0.0 0.00 0.00 0.00 37
20260508215415 71 0 0.0 0.0 0.00 0.00 0.00 61
20260508212415 69 0 0.0 0.0 0.00 0.00 0.00 64
20260508205415 68 0 0.0 0.0 0.00 0.00 0.00 66
20260508202415 68 0 0.0 0.0 0.00 0.00 0.00 66
20260508195415 69 0 0.0 0.0 0.00 0.00 0.00 65
20260508192415 70 0 0.0 0.0 0.00 0.00 0.00 66
20260508185415 70 0 0.0 0.0 0.00 0.00 0.00 66
20260508182415 70 0 0.0 0.0 0.00 0.00 0.00 67
20260508175415 71 0 0.0 0.0 0.00 0.00 0.00 67
20260508172415 71 0 0.0 0.0 0.00 0.00 0.00 67
20260508165415 71 0 0.0 0.0 0.00 0.00 0.00 67
20260508162415 72 0 0.0 0.0 0.00 0.00 0.00 68
20260508155415 72 0 0.0 0.0 0.00 0.00 0.00 68
20260508152415 73 0 0.0 0.0 0.00 0.00 0.00 68
20260508145415 73 0 0.0 0.0 0.00 0.00 0.00 68
20260508142415 73 0 0.0 0.0 0.00 0.00 0.00 67
20260508135415 74 0 0.0 0.0 0.00 0.00 0.00 72
20260508132415 74 0 0.0 0.0 0.00 0.00 0.00 72
20260508125415 74 0 0.0 0.0 0.00 0.00 0.00 71
20260508122415 75 0 0.0 0.0 0.00 0.00 0.00 66
20260508115415 77 0 0.0 0.0 0.00 0.00 0.00 65